DECAYED
Showing default

ASTROCAST-0302, 54369 (Decayed)

Orbit data source: Space-Track

ASTROCAST-0302, 54369 was a payload satellite owned by Astrocast (CH) in SSO that was launched on Sat, 26 Nov 2022 UTC via a PSLV-XL launch vehicle from the Sirharikota (SRI). Payload-class satellites include a variety of spacecraft equipped with specific instruments for various scientific and technological missions. These include communications satellites like Starlink; space stations such as the ISS; scientific satellites like the Hubble; Earth observation satellites from companies like Planet Labs, Umbra, and HawkEye 360; GPS; miniature CubeSats for education and research; and military/defense satellites.

Loading next visibility...
Identifier
54369, 2022-158J
Orbit
Decayed
Country
Flag of CHCH / SWTZ
Related business
Manufacturer
Astrocast
Mission
Decayed Commercial Communications
Bus & Motor
CUBESAT 3U, Unknown motor
Mass
4.5 kg wet, 4.5 kg dry
Launch date (UTC)
2022-11-26 (4 years ago)
Launch vehicle
PSLV-XL
Launch site
Sirharikota (SRI)
Object type
Payload
Rocket body
Debris
Shape & HBR
Box, 0.1 m
Radar Cross Section
0.035 m², Medium (>0.1 m² and < 1m²)

Expand to show TLE details & history
Last TLE update: 9 months ago

TLE from 9 months ago
0 ASTROCAST-0302
1 54369U 22158J   25250.29631141  .01375705  10416-2  27072-2 0  9998
2 54369  97.4346  15.0964 0014181 272.2952  87.6702 16.00130460156093
Epoch: 2025-09-07T07:06Z
TLE epoch observation values (Epoch: 2025-09-07T07:06:41.305Z)
Latitude
-0.00009°
Longitude
-78.19352°
Altitude
276.884 km
Speed
7.741 km/s
True Right ascension
01h 00m 23s
True Declination
0° 00' 00"
Sunlit
Object was in full shadow at epoch
Visualization orbit readout
Latitude
Unknown
Longitude
Unknown
Altitude
Unknown
Speed
Unknown
Apparent Right ascension
Unknown
Apparent Declination
Unknown
Sunlit
N/A
Visualization observer readout
Local Sidereal Time
21:49:14
Azimuth
Unknown
Elevation
Unknown
Doppler factor
Unknown
Orbital elements
Apogee altitude
280.347 km
Perigee altitude
261.489 km
Semi-major axis
6,649.055 km
Eccentricity
0.00142
Inclination
97.4346°
RAAN
15.0964°
Arg. of periapsis
272.2952°
True anomaly
87.83258°
Mean anomaly
87.6702°
Eccentric anomaly
87.75139°
Mean motion
4.00316 °/min
Orbital period
89.93 mins
BSTAR
0.0027072
Loading maneuver chart data...
Computing Atmospheric mass density...
Loading historical data...
Loading historical data...
Loading historical data...
Loading historical data...
Loading historical data...
Loading historical data...
Loading historical data...

Documentation

Showing up to 5 results
|